Terminal Aerodrome Forecast
Issued by NWS

Current Version | Previous Version | Graphics & Text | Print | Product List | Glossary On
Versions: 1 2 3 4 5 6 7 8 9 10 11 12 13 14 15 16 17 18 19 20 21 22 23 24 25 26
000
FTUS41 KPBZ 271731
TAFMGW
TAF
KMGW 271731Z 2718/2818 VRB03KT P6SM OVC015
     FM272300 03005KT P6SM OVC030
     FM280900 11006KT P6SM VCSH BKN015
     FM281200 11008KT P6SM -SHRA OVC010
     FM281700 16005KT 6SM -SHRA OVC015=

USA.gov is the U.S. government's official web portal to all federal, state and local government web resources and services.